#timestamp,LO_Frequency,Hit 
1505127615.3,286047005.9,N
1505127635.1,286047003.2,N
1505127655.8,286047005.5,N
1505127675.7,286046999.9,N
1505127695.5,286047002.8,N
1505127715.3,286047004.0,N
1505127735.2,286047003.1,N
1505127755.9,286047004.2,N
1505127775.7,286047000.3,N
1505127795.6,286047000.3,N
1505127815.4,286047002.4,N
1505127835.2,286047000.9,N
1505127855.1,286047000.4,N
1505127856.0,286047000.4,N
1505127875.8,286047002.8,N
1505127895.6,286047002.7,N
1505127915.4,286047003.2,N
1505127935.3,286047002.0,N
1505127955.1,286047002.3,N
1505127975.8,286047000.7,N
1505127995.7,286047000.0,N
1505128015.5,286047002.5,N
1505128035.3,286047000.8,N
1505128055.2,286047000.0,N
1505128075.9,286046999.9,N
1505128095.7,286047001.5,N
1505128115.6,286047000.4,N
1505128135.4,286046999.7,N
1505128155.2,286047000.1,N
1505128175.1,286047002.2,N
1505128176.0,286047002.2,N
1505128195.8,286047002.5,N
1505128215.6,286046998.8,N
1505128235.4,286047001.0,N
1505128255.3,286047002.7,N
1505128275.1,286047000.2,N
1505128295.8,286047001.2,N
1505128315.7,286047002.6,N
1505128335.5,286047000.9,N
1505128355.3,286046998.4,N
1505128375.2,286047000.9,N
1505128395.9,286047000.8,N
1505128415.7,286047000.6,N
1505128435.6,286047000.2,N
1505128455.4,286047002.8,N
1505128475.2,286047000.2,N
1505128495.1,286047000.8,N
1505128496.0,286047000.8,N
1505128515.8,286046995.6,P
1505128535.6,286046993.3,N
1505128555.5,286046995.0,N
1505128575.3,286046998.0,N
1505128595.1,286046996.5,N
1505128615.9,286046996.9,N
1505128635.7,286046999.0,N
1505128655.5,286046996.9,N
1505128675.4,286046997.5,N
1505128695.2,286046996.9,N
1505128715.0,286046999.2,N
1505128715.9,286046999.2,N
1505128735.7,286046997.3,N
1505128755.6,286046997.3,N
1505128775.4,286046994.5,P
1505128795.2,286046997.6,N
1505128815.1,286046999.1,N
1505128816.0,286046999.1,N
1505128835.8,286046997.7,N
1505128855.6,286046999.6,N
1505128875.5,286046997.4,N
1505128895.3,286046994.9,P
1505128915.1,286046993.6,P
1505128935.9,286046995.2,N
1505128955.7,286046999.6,N
1505128975.5,286046998.4,N
1505128995.4,286046999.6,N
1505129015.2,286046997.7,N
1505129035.0,286046997.0,N
1505129035.9,286046997.0,N
1505129055.8,286047001.2,N
1505129075.6,286046998.5,N
1505129095.4,286046998.6,N
1505129115.3,286046999.0,N
1505129135.1,286046997.3,N
1505129136.0,286046997.3,N
1505129155.8,286046996.4,N
1505129175.7,286046995.4,N
1505129195.5,286046996.8,N
1505129215.3,286046996.7,N
1505129235.1,286046996.8,N
1505129255.9,286046999.0,N
1505129275.7,286046998.7,N
1505129295.5,286046998.7,N
1505129315.4,286046997.3,N
1505129335.2,286046998.0,N
1505129355.0,286046999.2,N
1505129355.9,286046999.2,N
1505129375.8,286046999.3,N
1505129395.6,286046998.6,N
1505129415.4,286046998.8,N
1505129435.3,286046996.7,N
1505129455.1,286046994.1,P
1505129475.8,286046999.5,N
1505129495.7,286046999.8,N
1505129515.5,286047000.6,N
1505129535.3,286047000.0,N
1505129555.2,286046999.9,N
1505129575.9,286047002.2,N
1505129595.7,286047001.4,N
1505129615.6,286047004.3,N
1505129635.4,286047003.9,N
1505129655.2,286047001.6,N
1505129675.0,286047002.0,N
1505129675.9,286047002.0,N
1505129695.8,286047001.9,N
1505129715.6,286047004.3,N
1505129735.4,286047000.8,N
1505129755.3,286047001.2,N
1505129775.1,286046997.1,N
1505129795.8,286046995.0,N
1505129815.7,286046993.5,N
1505129835.5,286046990.4,P
1505129855.3,286046992.8,N
1505129875.2,286046992.6,N
1505129895.9,286046992.3,N
1505129915.7,286046994.6,N
1505129935.6,286046995.9,N
1505129955.4,286046996.2,N
1505129975.2,286046995.5,N
1505129995.1,286046999.0,N
1505129996.0,286046999.0,N
1505130015.8,286046999.0,N
1505130035.6,286046998.4,N
1505130055.5,286046996.6,N
1505130075.3,286046997.0,N
1505130095.1,286046995.4,N
1505130115.8,286046999.2,N
1505130135.7,286046998.8,N
1505130155.5,286046998.6,N
1505130175.3,286047000.8,N
1505130195.2,286046996.8,N
1505130215.0,286046996.8,N
1505130215.9,286046996.8,N
1505130235.7,286046997.8,N
1505130255.6,286046995.3,N
1505130275.4,286046996.2,N
1505130295.2,286046993.9,N
1505130315.1,286046994.5,N
1505130316.0,286046994.5,N
1505130335.8,286046996.4,N
1505130355.6,286046995.5,N
1505130375.5,286046995.2,N
1505130395.3,286046995.6,N
1505130415.1,286046993.5,P
1505130435.9,286046998.0,N
1505130455.7,286046995.0,N
1505130475.5,286046991.8,P
1505130495.4,286046999.2,N
1505130515.2,286046998.7,N
1505130535.0,286046998.3,N
1505130535.9,286046998.3,N
1505130555.8,286046999.2,N
1505130575.6,286046998.4,N
1505130595.4,286047002.8,N
1505130615.3,286047001.8,N
1505130635.1,286047001.4,N
1505130636.0,286047001.4,N
1505130655.8,286046998.2,N
1505130675.7,286047001.7,N
1505130695.5,286047004.2,N
1505130715.3,286047000.0,N
1505130735.1,286046999.5,N
1505130755.9,286046997.1,N
1505130775.7,286046996.2,N
1505130795.5,286046996.9,N
1505130815.4,286046996.0,N
1505130835.2,286046996.0,N
1505130855.0,286046995.2,N
1505130855.9,286046995.2,N
1505130875.8,286046996.5,N
1505130895.6,286046999.1,N
1505130915.4,286046999.4,N
1505130935.3,286046998.8,N
1505130955.1,286046998.0,N
1505130975.8,286046996.3,N
1505130995.7,286046997.9,N
1505131015.5,286046998.2,N
1505131035.3,286046998.3,N
1505131055.2,286046998.6,N
1505131075.9,286046999.1,N
1505131095.7,286046996.8,N
1505131115.5,286046999.2,N
1505131135.4,286047001.2,N
1505131155.2,286046998.8,N
1505131175.0,286046999.6,N
1505131175.9,286046999.6,N
1505131195.8,286046999.6,N
